Location: *
(50.5492°N, 7.7469°E)
Time: 09:35:45
(UTC+00:00)

Cosmos 1864 Rocket - Pass Details

Date: 21 October 2019
Orbit: 951 x 997 km, 82.9° (Epoch: 17 November)

Event Time Altitude Azimuth Distance (km) Brightness Sun altitude
Rises 19:08:41 0° 349° (N) 3,643 7.8 -26.4°
Reaches altitude 10° 19:11:11 10° 349° (N) 2,696 7.1 -26.8°
Maximum altitude 19:17:21 84° 262° (W) 972 4.4 -27.7°
Enters shadow 19:18:59 52° 180° (S) 1,178 4.7 -28.0°
